Temp
-2 -2 -2 -1 -1 -2 -2 -2 -2 -2 -3 -3 -3 -3 -3 -3 -3 -3 -3 -3 -3 -4 -4 -4 -4 -4 -5 -6 -6 -6 -5 -5 -5 -6 -7 -7 -7 -8 -6 -6 -6 -7 -7 -7 -8
-2 -1 -2 -2 -2 -2 -2 -2 -2 -2 -2 -2 -3 -3 -3 -3 -3 -3 -3 -4 -4 -4 -4 -4 -5 -5 -5 -4 -5 -6 -8 -5 -4 -7 -7 -7 -7 -8 -8 -7 -6 -6 -6 -7 -7
-2 -2 -2 -2 -2 -2 -2 -2 -2 -2 -3 -3 -3 -3 -3 -3 -3 -3 -3 -3 -4 -4 -4 -4 -5 -5 -5 -5 -5 -6 -7 -7 -7 -8 -7 -7 -6 -7 -8 -8 -7 -6 -6 -7 -7
-2 -2 -2 -2 -3 -3 -3 -3 -3 -3 -3 -3 -3 -3 -3 -3 -3 -4 -4 -4 -4 -4 -4 -4 -4 -4 -5 -5 -5 -6 -5 -5 -7 -8 -8 -7 -7 -6 -8 -8 -7 -7 -7 -7 -7
-3 -3 -3 -3 -3 -3 -3 -3 -3 -3 -3 -3 -3 -3 -3 -3 -3 -3 -4 -4 -4 -4 -4 -4 -4 -4 -4 -5 -5 -5 -6 -6 -6 -6 -6 -7 -7 -7 -7 -8 -8 -8 -7 -8 -8
-3 -3 -3 -3 -3 -3 -3 -3 -3 -3 -3 -3 -3 -3 -3 -3 -3 -4 -4 -4 -4 -4 -4 -4 -4 -4 -4 -4 -5 -5 -5 -5 -6 -6 -6 -6 -7 -7 -8 -8 -7 -7 -8 -8 -8
-3 -3 -3 -3 -3 -3 -3 -3 -3 -3 -3 -3 -3 -3 -3 -3 -3 -3 -4 -4 -4 -4 -4 -4 -4 -4 -4 -4 -5 -4 -5 -5 -6 -6 -6 -7 -6 -7 -8 -8 -7 -7 -8 -8 -8
-4 -4 -4 -3 -3 -4 -3 -3 -3 -3 -3 -3 -3 -3 -3 -3 -3 -4 -4 -4 -4 -4 -4 -4 -4 -4 -4 -4 -4 -5 -5 -5 -6 -8 -7 -7 -8 -8 -8 -7 -8 -7 -7 -8 -8
-4 -4 -4 -3 -3 -3 -3 -3 -3 -3 -3 -3 -3 -3 -3 -4 -4 -4 -4 -4 -4 -4 -4 -4 -4 -4 -4 -4 -4 -4 -5 -5 -7 -8 -8 -8 -8 -8 -8 -8 -8 -7 -7 -7 -8
-4 -4 -3 -3 -3 -3 -4 -3 -3 -3 -3 -3 -3 -3 -4 -4 -4 -4 -4 -4 -4 -4 -4 -4 -4 -4 -4 -4 -4 -5 -8 -8 -8 -8 -8 -8 -8 -8 -8 -8 -8 -7 -8 -7 -7
-3 -4 -4 -4 -4 -4 -4 -4 -4 -4 -4 -3 -3 -4 -4 -4 -4 -4 -4 -4 -4 -4 -4 -4 -4 -4 -4 -4 -4 -5 -5 -5 -6 -8 -9 -9 -9 -9 -9 -9 -9 -9 -7 -7 -7
-4 -4 -4 -4 -4 -4 -4 -4 -4 -3 -3 -4 -4 -4 -4 -4 -4 -4 -4 -4 -4 -4 -4 -4 -4 -4 -4 -5 -5 -5 -5 -5 -5 -6 -9 -9 -9 -9 -9 -9 -9 -7 -6 -7 -8
-4 -4 -4 -4 -4 -4 -4 -4 -4 -4 -4 -4 -4 -4 -4 -4 -5 -4 -4 -4 -4 -4 -4 -4 -5 -5 -4 -4 -5 -6 -5 -5 -6 -8 -10 -10 -9 -9 -9 -9 -9 -8 -7 -7 -8
-4 -5 -4 -4 -4 -4 -4 -4 -4 -4 -4 -4 -4 -4 -4 -5 -5 -5 -4 -5 -5 -5 -5 -5 -5 -5 -5 -5 -5 -6 -7 -6 -7 -9 -10 -10 -9 -9 -9 -9 -8 -9 -9 -7 -7
-5 -5 -5 -4 -4 -4 -5 -4 -4 -4 -5 -5 -5 -5 -5 -5 -5 -4 -5 -5 -5 -5 -5 -6 -6 -6 -6 -6 -6 -7 -7 -8 -8 -10 -10 -10 -10 -9 -9 -9 -9 -9 -9 -8 -8
-5 -5 -5 -5 -5 -5 -5 -5 -5 -5 -5 -5 -5 -5 -5 -5 -5 -5 -5 -5 -5 -5 -6 -6 -6 -7 -7 -7 -7 -7 -8 -8 -10 -11 -11 -11 -11 -9 -9 -9 -9 -9 -9 -8 -8
-5 -5 -5 -5 -5 -5 -5 -5 -6 -6 -5 -5 -6 -5 -5 -6 -6 -5 -6 -6 -6 -6 -8 -8 -10 -11 -8 -8 -8 -9 -11 -10 -10 -10 -11 -11 -12 -10 -10 -10 -10 -9 -8 -8 -8
-6 -6 -6 -6 -6 -6 -6 -6 -6 -6 -6 -6 -6 -6 -6 -6 -6 -6 -6 -7 -6 -6 -7 -10 -10 -11 -11 -10 -10 -11 -11 -11 -10 -11 -11 -10 -10 -10 -11 -10 -10 -10 -9 -9 -9
-6 -6 -6 -6 -6 -6 -6 -6 -6 -6 -6 -6 -6 -6 -6 -6 -7 -7 -7 -7 -7 -7 -7 -8 -9 -11 -12 -11 -12 -11 -11 -11 -11 -11 -10 -11 -10 -10 -11 -11 -10 -10 -9 -9 -9
-7 -7 -7 -6 -6 -6 -6 -6 -6 -6 -6 -6 -7 -6 -7 -6 -7 -7 -8 -8 -7 -7 -7 -8 -8 -9 -12 -12 -12 -11 -11 -11 -11 -11 -11 -10 -11 -9 -10 -10 -10 -10 -9 -9 -9
-7 -7 -7 -7 -7 -7 -7 -6 -6 -6 -6 -6 -7 -7 -7 -7 -8 -9 -9 -9 -8 -8 -9 -9 -9 -10 -12 -11 -11 -12 -11 -11 -11 -11 -11 -10 -10 -11 -11 -11 -11 -10 -7 -10 -9
-8 -8 -7 -7 -7 -7 -7 -7 -7 -7 -7 -7 -7 -7 -7 -8 -8 -9 -9 -9 -8 -8 -9 -9 -9 -9 -11 -12 -12 -12 -12 -11 -11 -11 -11 -11 -10 -11 -11 -10 -10 -9 -10 -10 -10
-8 -8 -7 -8 -8 -8 -7 -8 -7 -7 -7 -7 -7 -7 -8 -8 -9 -9 -9 -9 -9 -9 -9 -9 -10 -11 -12 -12 -12 -12 -12 -12 -12 -12 -11 -11 -10 -11 -10 -8 -11 -10 -10 -10 -10
-8 -8 -7 -8 -8 -8 -8 -8 -8 -8 -8 -8 -8 -8 -8 -9 -9 -9 -10 -10 -10 -10 -9 -10 -10 -11 -12 -11 -12 -11 -12 -12 -11 -12 -11 -11 -11 -11 -10 -12 -10 -11 -10 -10 -10
-9 -9 -9 -8 -8 -9 -9 -9 -9 -9 -8 -8 -9 -9 -9 -9 -10 -10 -10 -10 -10 -10 -10 -10 -10 -11 -11 -11 -12 -13 -13 -12 -12 -12 -12 -12 -12 -11 -11 -12 -11 -11 -11 -10 -9
-10 -10 -9 -9 -9 -9 -9 -9 -9 -10 -9 -9 -9 -10 -9 -10 -10 -10 -10 -11 -11 -11 -11 -11 -11 -11 -11 -12 -13 -14 -13 -13 -13 -12 -12 -12 -12 -11 -13 -12 -11 -10 -11 -10 -9
-11 -10 -10 -10 -10 -10 -10 -10 -10 -10 -10 -10 -10 -10 -10 -10 -10 -11 -11 -11 -11 -11 -11 -11 -12 -12 -12 -12 -13 -13 -13 -13 -13 -13 -12 -11 -12 -11 -11 -11 -11 -11 -10 -11 -10
Height
5925 5925 5925 5924 5923 5922 5921 5921 5920 5920 5919 5919 5919 5918 5917 5917 5916 5916 5916 5917 5916 5915 5915 5915 5915 5915 5915 5916 5917 5918 5919 5903 5903 5923 5925 5925 5921 5919 5915 5913 5909 5907 5903 5900 5897
5924 5923 5923 5922 5921 5920 5919 5918 5917 5917 5917 5917 5916 5916 5915 5914 5913 5914 5914 5914 5914 5913 5913 5913 5913 5913 5913 5913 5915 5916 5917 5918 5916 5922 5923 5921 5918 5919 5918 5915 5911 5909 5906 5902 5899
5922 5921 5920 5919 5918 5917 5916 5915 5916 5915 5915 5915 5914 5914 5913 5912 5913 5913 5912 5912 5912 5912 5911 5910 5910 5911 5911 5911 5913 5912 5914 5917 5918 5918 5917 5917 5917 5915 5917 5917 5911 5910 5907 5904 5901
5919 5918 5917 5917 5916 5916 5916 5916 5915 5915 5914 5914 5913 5913 5912 5912 5914 5912 5911 5911 5910 5910 5909 5909 5909 5909 5909 5909 5909 5908 5910 5910 5911 5914 5913 5914 5914 5914 5913 5914 5913 5909 5907 5905 5902
5917 5916 5916 5916 5916 5916 5916 5915 5915 5914 5914 5913 5913 5912 5911 5911 5912 5910 5910 5909 5908 5908 5907 5907 5907 5906 5905 5906 5907 5905 5907 5906 5905 5906 5909 5909 5911 5911 5911 5912 5910 5908 5905 5905 5904
5916 5916 5916 5916 5916 5916 5916 5916 5915 5913 5913 5912 5911 5910 5910 5909 5908 5908 5908 5907 5906 5906 5905 5904 5904 5904 5903 5901 5901 5901 5900 5902 5901 5901 5903 5905 5907 5908 5910 5910 5907 5906 5904 5903 5902
5915 5915 5915 5915 5915 5915 5915 5914 5913 5912 5911 5910 5909 5908 5907 5907 5905 5905 5905 5904 5903 5902 5902 5900 5900 5900 5899 5898 5896 5895 5895 5895 5896 5898 5897 5899 5900 5903 5907 5908 5905 5903 5902 5902 5902
5913 5913 5913 5913 5913 5912 5912 5912 5911 5910 5908 5908 5907 5906 5904 5903 5902 5902 5901 5901 5900 5898 5897 5896 5895 5894 5893 5892 5891 5889 5889 5889 5892 5893 5895 5894 5894 5899 5904 5908 5901 5901 5900 5900 5900
5912 5912 5912 5911 5911 5910 5909 5909 5908 5907 5906 5905 5904 5903 5902 5900 5899 5898 5897 5897 5895 5894 5893 5891 5890 5889 5888 5886 5884 5884 5883 5883 5886 5890 5891 5890 5889 5892 5897 5901 5897 5896 5897 5897 5897
5910 5910 5909 5908 5908 5907 5906 5905 5904 5903 5903 5902 5900 5900 5898 5897 5895 5894 5893 5892 5890 5889 5887 5886 5884 5883 5881 5880 5879 5877 5878 5881 5882 5884 5885 5885 5882 5884 5887 5889 5888 5890 5892 5892 5894
5906 5906 5906 5905 5903 5903 5903 5902 5902 5901 5899 5898 5897 5895 5894 5893 5891 5890 5888 5886 5884 5883 5881 5880 5879 5877 5875 5872 5871 5870 5870 5870 5872 5875 5877 5874 5875 5876 5877 5878 5879 5880 5884 5886 5889
5903 5903 5901 5900 5899 5899 5898 5897 5895 5895 5895 5893 5892 5891 5889 5888 5886 5884 5883 5881 5879 5877 5876 5874 5872 5870 5868 5866 5864 5862 5861 5862 5862 5863 5863 5864 5862 5865 5868 5868 5868 5868 5873 5879 5884
5898 5897 5896 5895 5895 5894 5892 5891 5890 5889 5889 5889 5888 5885 5884 5883 5881 5879 5878 5875 5873 5871 5869 5867 5866 5862 5861 5860 5857 5856 5854 5853 5852 5852 5851 5853 5851 5853 5856 5857 5859 5861 5864 5869 5875
5891 5891 5891 5891 5891 5889 5888 5886 5885 5883 5882 5884 5882 5881 5879 5876 5876 5873 5871 5870 5868 5865 5863 5861 5858 5856 5854 5853 5850 5849 5847 5844 5843 5842 5840 5846 5841 5847 5851 5853 5854 5852 5855 5860 5865
5885 5885 5884 5884 5884 5883 5883 5881 5880 5878 5877 5877 5875 5873 5872 5871 5868 5867 5864 5862 5861 5858 5857 5855 5851 5848 5846 5845 5843 5842 5838 5836 5834 5831 5833 5833 5833 5837 5844 5840 5846 5846 5849 5854 5861
5878 5877 5877 5877 5877 5877 5876 5875 5875 5875 5870 5870 5868 5867 5865 5864 5862 5860 5859 5857 5854 5852 5848 5846 5844 5839 5838 5837 5835 5833 5830 5828 5825 5826 5823 5822 5821 5819 5832 5835 5837 5842 5843 5849 5856
5870 5870 5869 5869 5869 5869 5869 5868 5869 5867 5867 5864 5862 5861 5859 5856 5854 5854 5852 5848 5848 5846 5844 5841 5841 5833 5831 5830 5828 5826 5826 5827 5827 5823 5818 5816 5808 5812 5818 5819 5827 5834 5840 5847 5852
5864 5863 5862 5861 5862 5862 5862 5862 5860 5858 5857 5857 5855 5853 5852 5850 5848 5847 5845 5843 5837 5839 5840 5838 5839 5830 5825 5824 5825 5825 5826 5825 5822 5818 5814 5810 5808 5810 5812 5810 5823 5826 5830 5831 5837
5857 5857 5856 5856 5856 5856 5856 5855 5852 5852 5851 5850 5848 5848 5844 5843 5845 5839 5837 5837 5832 5832 5833 5831 5830 5823 5824 5821 5822 5824 5820 5821 5816 5814 5813 5807 5806 5809 5808 5814 5821 5817 5822 5823 5821
5849 5849 5849 5849 5848 5848 5848 5847 5844 5845 5843 5843 5841 5841 5838 5835 5837 5832 5831 5827 5824 5825 5823 5822 5821 5819 5821 5818 5818 5816 5819 5817 5814 5810 5806 5808 5802 5803 5808 5807 5811 5807 5810 5811 5820
5840 5840 5843 5840 5840 5840 5840 5837 5838 5837 5837 5836 5834 5832 5831 5829 5829 5827 5825 5822 5815 5819 5816 5814 5812 5814 5813 5816 5813 5810 5810 5811 5812 5809 5806 5803 5802 5793 5797 5802 5801 5793 5774 5803 5811
5831 5830 5835 5832 5833 5831 5829 5830 5830 5828 5829 5827 5826 5825 5823 5822 5821 5820 5818 5814 5810 5810 5808 5807 5805 5805 5805 5807 5806 5805 5806 5803 5805 5802 5803 5799 5798 5800 5793 5797 5790 5791 5792 5799 5803
5821 5821 5823 5822 5823 5821 5820 5821 5821 5820 5819 5818 5818 5817 5815 5815 5813 5812 5810 5807 5803 5803 5799 5800 5798 5796 5800 5806 5794 5794 5793 5788 5797 5794 5794 5788 5790 5785 5787 5762 5774 5781 5787 5792 5796
5811 5810 5811 5812 5812 5812 5810 5811 5811 5811 5810 5810 5808 5807 5807 5806 5804 5803 5802 5799 5796 5794 5792 5792 5790 5789 5790 5793 5789 5787 5790 5790 5786 5790 5790 5787 5777 5779 5767 5772 5773 5772 5781 5785 5790
5800 5800 5800 5799 5801 5802 5801 5802 5801 5800 5801 5800 5799 5799 5797 5797 5796 5794 5793 5792 5789 5785 5785 5784 5783 5781 5781 5780 5781 5785 5784 5786 5786 5785 5781 5783 5775 5760 5747 5759 5766 5768 5777 5780 5784
5788 5790 5791 5790 5790 5791 5790 5791 5791 5790 5790 5791 5790 5789 5788 5788 5786 5786 5784 5782 5781 5778 5776 5776 5774 5772 5773 5773 5771 5772 5775 5777 5778 5778 5776 5771 5769 5758 5760 5761 5761 5766 5771 5774 5772
5776 5777 5778 5780 5780 5780 5780 5780 5780 5780 5780 5781 5780 5780 5779 5776 5778 5777 5775 5774 5772 5770 5769 5768 5766 5765 5765 5766 5764 5766 5768 5769 5767 5765 5760 5761 5757 5757 5759 5759 5760 5762 5768 5769 5763
Wind_Speed
7 8 9 9 10 11 12 12 13 13 14 14 14 15 16 16 16 15 15 13 12 13 12 11 11 11 10 10 8 4 4 17 17 4 3 8 5 8 7 9 7 8 7 9 13
9 10 11 11 11 12 13 14 15 15 14 13 13 13 13 14 15 15 16 15 15 15 15 14 12 12 14 13 11 10 10 15 8 9 7 9 7 7 6 11 9 8 7 7 8
10 11 12 12 12 12 10 9 6 4 5 6 7 7 7 7 8 8 10 9 9 10 11 14 15 16 15 16 15 15 15 13 15 19 19 12 7 9 7 7 10 11 9 7 7
12 12 12 10 3 1 1 3 5 7 7 8 8 8 9 10 10 6 8 9 10 10 11 13 14 14 16 18 18 22 19 20 17 18 19 17 16 10 10 9 9 12 10 7 3
12 9 5 2 0 2 4 6 8 9 9 10 9 10 12 13 11 10 8 9 9 11 13 14 14 16 18 18 18 24 20 22 26 24 24 24 17 15 12 11 12 6 12 7 7
6 4 4 4 2 3 5 8 10 10 10 9 11 12 14 14 14 11 8 10 12 13 14 16 17 17 19 21 22 22 22 22 26 27 25 23 20 21 13 16 21 12 10 9 8
5 4 4 5 6 8 10 12 13 13 13 13 14 15 14 12 12 11 11 13 13 16 18 20 22 22 23 24 26 27 27 25 23 25 25 25 26 25 18 18 24 24 13 10 7
5 5 7 8 11 14 15 14 15 15 15 15 15 17 15 14 14 14 14 16 18 19 21 24 25 26 27 28 29 30 30 28 21 21 22 26 29 24 16 19 23 28 21 16 14
7 9 11 14 16 17 17 17 16 15 13 14 16 17 15 16 17 17 19 20 19 22 24 23 26 28 28 29 31 30 30 27 24 18 19 26 28 25 22 22 28 31 28 24 21
12 12 15 18 16 16 16 17 17 17 17 17 18 20 18 18 19 19 20 23 24 24 24 27 31 31 29 28 30 31 27 25 26 22 23 27 27 26 29 32 33 30 29 31 29
16 18 21 19 18 19 19 20 20 19 20 20 20 21 20 21 21 22 24 26 27 27 28 30 32 30 31 32 33 33 33 33 31 29 28 28 33 31 29 32 34 38 39 34 31
21 20 19 19 20 21 22 21 21 21 21 21 21 21 21 22 23 25 26 27 28 28 30 32 32 32 35 34 34 35 36 37 36 36 35 36 37 34 32 31 36 43 41 39 30
22 21 20 20 21 22 23 23 23 24 24 22 22 23 23 24 26 27 28 30 31 31 32 33 31 35 37 37 35 35 35 35 38 34 34 35 38 34 35 35 36 39 38 40 35
24 23 23 22 24 23 24 25 26 25 27 24 22 23 25 26 27 29 30 30 31 32 33 33 34 35 35 35 37 36 34 35 37 33 36 30 40 34 32 26 26 29 28 35 36
26 26 26 27 26 26 26 26 26 25 27 28 26 28 30 30 32 30 31 32 32 33 33 30 34 35 34 32 31 32 33 34 35 35 30 33 34 34 27 23 26 26 23 23 24
30 30 30 29 29 28 28 27 26 27 30 31 31 31 32 31 32 32 32 32 32 32 33 34 32 34 32 31 31 33 32 31 26 20 29 30 37 40 28 30 20 21 20 18 22
30 31 32 31 30 30 30 31 30 29 29 33 33 33 34 35 34 32 32 35 33 32 25 27 16 23 31 29 28 27 14 18 20 22 27 22 21 26 27 21 19 13 15 16 23
23 22 23 24 23 23 23 24 25 30 30 31 32 32 31 33 34 34 33 32 38 32 27 17 11 19 22 24 19 13 12 17 20 21 29 34 31 25 27 29 15 18 32 25 33
27 28 28 28 28 28 27 28 31 27 28 28 29 28 33 34 29 34 33 32 36 33 29 27 17 26 18 16 15 12 17 16 19 18 19 28 19 23 17 6 12 12 26 35 43
32 31 30 31 30 30 30 30 32 29 31 30 30 31 31 35 29 33 30 35 36 32 31 28 26 20 15 15 16 15 14 16 17 24 13 19 28 6 20 21 21 39 13 33 33
35 35 29 33 32 32 31 33 31 30 30 30 30 31 31 32 31 29 29 31 38 31 30 28 28 18 17 14 20 14 12 14 16 17 22 24 14 4 29 10 17 31 14 26 28
39 39 33 36 36 36 36 34 34 35 33 33 32 32 31 32 30 29 29 31 36 33 30 26 27 23 19 21 21 18 20 20 16 18 21 28 18 18 16 17 16 36 22 23 24
43 43 41 40 38 39 40 36 37 36 35 34 33 32 32 30 31 30 30 32 34 31 30 26 24 23 15 12 27 37 30 16 16 12 21 28 23 20 27 26 23 20 27 31 24
41 41 41 39 40 38 40 38 38 36 36 35 34 34 32 31 31 30 28 30 32 30 30 25 23 24 21 21 21 20 12 17 12 17 22 23 26 28 33 33 19 15 28 31 28
39 40 39 40 38 37 38 39 38 39 36 36 36 35 35 33 32 30 31 30 27 30 29 27 26 25 22 24 24 29 28 24 26 23 28 25 30 36 29 9 25 20 24 27 25
38 36 35 37 36 37 38 38 38 37 39 36 38 36 38 35 34 31 30 29 28 28 29 25 26 25 23 19 20 25 26 22 30 25 31 32 27 36 15 16 20 23 28 29 33
37 37 36 35 34 36 37 38 37 38 39 37 39 36 36 39 32 30 28 28 28 27 27 25 24 24 22 17 17 21 21 26 28 35 30 40 30 25 20 19 24 23 25 22 30
Wind_Direction
326 321 312 308 302 295 291 289 285 281 280 282 283 288 291 291 290 295 295 293 291 293 296 293 291 296 297 292 289 259 129 237 162 292 286 302 334 327 333 348 357 12 59 66 60
307 297 292 291 290 291 290 286 287 292 297 298 293 289 284 288 288 289 292 295 293 293 293 292 292 286 285 284 273 265 257 299 326 260 270 272 298 321 318 309 328 343 5 49 59
289 288 290 295 298 297 294 302 323 17 26 19 13 8 354 322 313 337 338 332 331 326 316 304 294 286 283 282 282 263 267 223 248 247 243 256 263 279 299 311 284 309 318 353 22
290 293 296 299 307 286 330 342 341 345 354 355 350 345 337 328 345 355 347 350 345 343 334 327 323 312 294 288 281 270 273 270 257 249 256 255 264 283 278 269 240 278 302 302 353
292 292 289 294 5 27 348 335 322 317 320 326 321 320 322 322 329 325 327 329 327 326 325 323 321 318 312 300 291 281 277 266 264 255 241 247 249 261 279 276 252 286 310 303 301
257 242 238 209 227 278 307 316 318 312 315 317 316 318 319 323 315 313 312 313 312 310 311 310 309 307 306 300 297 287 288 275 272 268 264 255 237 246 262 268 262 238 277 286 272
231 230 235 260 281 290 301 307 308 307 301 300 305 310 309 311 313 310 309 307 307 309 309 306 305 303 298 296 293 291 291 286 277 277 270 266 257 237 251 268 266 252 241 267 282
235 263 287 296 295 294 296 300 303 302 297 294 299 300 301 299 303 303 301 300 302 305 306 305 302 298 295 292 289 289 284 288 286 272 270 260 258 256 239 247 263 251 245 245 259
249 271 284 288 288 290 290 296 302 306 304 297 296 297 290 291 298 299 298 297 300 303 305 304 306 303 299 298 294 290 289 285 278 259 262 254 254 252 237 249 255 243 246 247 245
257 272 294 296 292 296 296 300 299 299 300 298 299 294 288 286 295 297 294 295 298 299 299 303 304 306 305 298 296 290 279 273 271 277 258 262 269 259 249 241 250 240 244 248 244
275 285 291 286 288 291 291 293 292 293 296 297 296 294 287 284 289 293 294 295 294 295 297 298 302 307 302 301 299 289 283 278 265 245 251 260 250 252 243 247 251 250 238 242 246
281 285 288 290 292 294 294 295 298 297 296 296 296 293 287 283 286 292 295 294 292 291 293 298 304 302 303 303 296 288 285 286 281 268 258 259 261 256 256 254 257 252 244 239 242
285 288 292 294 294 294 297 298 297 296 295 293 295 295 293 290 292 294 293 292 291 292 296 298 302 300 302 300 296 291 289 286 285 276 264 264 263 266 255 258 262 263 249 240 237
288 290 291 294 293 294 295 297 298 296 293 294 297 299 295 294 292 294 296 291 292 294 295 298 299 300 298 297 297 292 290 290 291 282 272 259 264 263 265 258 251 260 257 247 238
285 287 288 290 290 291 290 291 292 290 292 296 296 302 299 297 299 294 292 293 294 296 297 300 299 299 298 298 293 292 288 291 293 280 273 268 264 255 250 248 250 260 243 241 231
282 284 286 285 286 286 286 286 286 285 284 287 292 299 299 295 294 292 288 288 292 296 299 298 303 300 301 299 297 297 298 301 296 286 271 271 259 232 234 254 243 252 246 228 222
282 281 282 283 284 285 285 285 284 280 286 287 290 292 294 293 295 292 292 296 297 301 300 297 310 283 302 299 297 302 303 315 296 285 281 260 266 251 217 224 241 248 204 214 225
287 289 289 290 291 291 292 288 283 282 282 284 286 287 287 289 290 291 293 298 296 298 300 297 296 282 292 302 296 266 271 277 282 279 290 280 262 232 237 223 237 251 197 205 201
281 281 282 282 283 283 283 283 280 286 287 288 287 285 287 286 285 289 292 290 291 295 298 297 286 268 308 284 278 297 288 282 275 286 284 293 299 268 252 165 218 235 230 214 210
277 276 278 280 280 280 280 279 283 283 284 284 282 284 283 284 287 289 290 289 291 295 301 299 296 285 288 288 279 269 253 294 283 287 273 264 269 276 235 210 192 257 227 231 223
275 274 274 276 277 278 279 280 281 280 281 282 282 282 279 281 283 283 285 285 288 298 297 298 297 299 259 278 261 259 268 266 267 272 281 304 275 236 221 260 252 249 237 213 223
275 275 275 274 275 274 277 277 277 279 278 279 279 279 280 282 280 282 282 281 290 297 293 290 297 293 279 239 277 270 258 260 264 278 275 247 265 289 284 262 245 241 250 226 236
273 273 272 274 274 275 273 275 275 276 275 276 277 276 279 277 279 279 279 284 289 293 288 297 290 284 286 290 251 249 257 243 264 267 251 267 242 285 248 221 236 227 237 231 234
271 272 270 270 269 270 272 273 273 270 273 273 274 276 276 277 279 280 279 284 287 289 291 289 279 275 275 237 282 275 283 258 264 266 269 275 306 239 249 264 234 218 222 226 233
270 269 270 271 264 266 266 268 270 271 268 272 272 273 274 277 277 281 283 282 283 282 287 285 281 277 275 272 247 248 261 268 265 266 269 270 275 278 255 214 208 204 216 231 233
270 269 268 267 268 268 266 265 266 268 269 271 270 271 275 275 277 280 281 282 281 279 282 281 281 279 278 276 272 254 251 255 255 261 267 267 271 276 301 243 212 213 216 225 233
266 266 267 266 264 266 267 266 266 266 267 267 269 270 273 273 282 277 276 277 277 278 280 281 279 278 279 278 267 256 260 246 245 244 242 251 267 272 271 241 224 232 234 221 234